Station Historical Data
Daily Summary for April 16, 2012 Units:  English    Metric   Both
« Previous Day
Next Day »
Daily Weekly Monthly Yearly Custom
  High: Low: Average:
Temperature: 72.9 °F 60.0 °F 66.8 °F
Dew Point: 64.2 °F 56.3 °F 60.9 °F
Humidity: 94% 64% 82%
Wind Speed: 17.0mph 0.0mph 5.8mph
Wind Gust: 20.0mph - -
Wind- - SW
Pressure: 30.17 in 29.92 in -
Precipitation: 0.13 in    
Historical Graphs
 
 
Tabular Data for April 16, 2012
Time Temperature Dew Point Pressure Wind Wind Speed Wind Gust Humidity Rainfall Rate (Hourly) Conditions
00:00 71.9 °F 63.2 °F 29.93 in SE 7.0 mph 14.0 mph 74% 0.00 in
00:02 71.7 °F 63.4 °F 29.93 in SSE 9.0 mph 12.0 mph 75% 0.00 in
00:07 71.8 °F 63.5 °F 29.93 in South 8.0 mph 18.0 mph 75% 0.00 in
00:12 71.8 °F 63.5 °F 29.93 in ESE 12.0 mph 19.0 mph 75% 0.00 in
00:17 71.8 °F 63.5 °F 29.92 in South 15.0 mph 15.0 mph 75% 0.00 in
00:22 71.5 °F 63.2 °F 29.93 in SE 13.0 mph 16.0 mph 75% 0.00 in
00:27 71.3 °F 63.0 °F 29.93 in SE 8.0 mph 14.0 mph 75% 0.00 in
00:32 71.2 °F 63.3 °F 29.93 in SSE 7.0 mph 13.0 mph 76% 0.00 in
00:37 71.2 °F 63.3 °F 29.93 in South 9.0 mph 17.0 mph 76% 0.00 in
00:43 71.1 °F 63.2 °F 29.94 in SSE 6.0 mph 10.0 mph 76% 0.00 in
00:48 71.0 °F 63.1 °F 29.93 in SSW 7.0 mph 13.0 mph 76% 0.00 in
00:53 70.9 °F 63.3 °F 29.93 in SE 13.0 mph 14.0 mph 77% 0.00 in
00:58 70.7 °F 63.1 °F 29.93 in SE 11.0 mph 12.0 mph 77% 0.00 in
01:03 70.5 °F 63.0 °F 29.93 in SE 7.0 mph 14.0 mph 77% 0.00 in
01:08 70.3 °F 63.1 °F 29.93 in SSE 11.0 mph 14.0 mph 78% 0.00 in
01:13 70.3 °F 63.1 °F 29.93 in SSE 9.0 mph 17.0 mph 78% 0.00 in
01:18 70.2 °F 63.0 °F 29.93 in SSE 10.0 mph 15.0 mph 78% 0.00 in
01:23 70.1 °F 62.9 °F 29.93 in SSE 10.0 mph 17.0 mph 78% 0.00 in
01:28 70.0 °F 63.2 °F 29.93 in SE 9.0 mph 12.0 mph 79% 0.00 in
01:33 69.9 °F 63.1 °F 29.93 in SSE 8.0 mph 14.0 mph 79% 0.00 in
01:38 69.7 °F 62.9 °F 29.93 in SE 6.0 mph 14.0 mph 79% 0.00 in
01:43 69.6 °F 63.2 °F 29.93 in SSE 17.0 mph 17.0 mph 80% 0.00 in
01:48 69.6 °F 63.2 °F 29.93 in SSE 4.0 mph 11.0 mph 80% 0.00 in
01:53 69.6 °F 63.2 °F 29.93 in SE 11.0 mph 15.0 mph 80% 0.00 in
01:58 69.5 °F 63.1 °F 29.93 in SSE 6.0 mph 10.0 mph 80% 0.00 in
02:03 69.5 °F 63.1 °F 29.93 in SE 5.0 mph 12.0 mph 80% 0.00 in
02:08 69.6 °F 63.2 °F 29.94 in SSE 8.0 mph 13.0 mph 80% 0.00 in
02:13 69.6 °F 63.2 °F 29.94 in SSW 5.0 mph 12.0 mph 80% 0.00 in
02:18 69.7 °F 63.3 °F 29.94 in SSW 4.0 mph 12.0 mph 80% 0.00 in
02:23 69.6 °F 63.2 °F 29.95 in SSW 12.0 mph 12.0 mph 80% 0.00 in
02:28 69.7 °F 63.3 °F 29.95 in South 6.0 mph 11.0 mph 80% 0.00 in
02:34 69.6 °F 63.5 °F 29.94 in SSE 8.0 mph 8.0 mph 81% 0.00 in
02:39 69.6 °F 63.5 °F 29.95 in SSW 7.0 mph 15.0 mph 81% 0.00 in
02:44 69.6 °F 63.5 °F 29.95 in South 13.0 mph 14.0 mph 81% 0.00 in
02:49 69.5 °F 63.4 °F 29.95 in South 7.0 mph 11.0 mph 81% 0.00 in
02:50 69.4 °F 63.3 °F 29.95 in SSW 7.0 mph 11.0 mph 81% 0.00 in
02:55 69.4 °F 63.3 °F 29.95 in SSE 6.0 mph 15.0 mph 81% 0.00 in
03:00 69.2 °F 63.5 °F 29.95 in SSE 10.0 mph 12.0 mph 82% 0.00 in
03:05 69.1 °F 63.4 °F 29.95 in SSW 6.0 mph 10.0 mph 82% 0.00 in
03:10 68.9 °F 63.2 °F 29.95 in South 5.0 mph 9.0 mph 82% 0.00 in
03:15 68.8 °F 63.4 °F 29.95 in SSE 9.0 mph 10.0 mph 83% 0.00 in
03:20 68.6 °F 63.2 °F 29.95 in SE 12.0 mph 12.0 mph 83% 0.00 in
03:25 68.4 °F 63.4 °F 29.95 in South 9.0 mph 11.0 mph 84% 0.00 in
03:30 68.3 °F 63.3 °F 29.95 in SSW 4.0 mph 9.0 mph 84% 0.00 in
03:35 68.2 °F 63.2 °F 29.95 in SSE 7.0 mph 11.0 mph 84% 0.00 in
03:37 68.2 °F 63.2 °F 29.95 in SSE 6.0 mph 9.0 mph 84% 0.00 in
03:42 68.2 °F 63.2 °F 29.95 in South 6.0 mph 13.0 mph 84% 0.00 in
03:47 68.1 °F 63.1 °F 29.95 in South 11.0 mph 11.0 mph 84% 0.00 in
03:52 68.1 °F 63.1 °F 29.95 in SSW 8.0 mph 12.0 mph 84% 0.00 in
03:57 68.1 °F 63.1 °F 29.95 in SSE 7.0 mph 12.0 mph 84% 0.00 in
04:02 68.1 °F 63.4 °F 29.95 in SSW 11.0 mph 13.0 mph 85% 0.00 in
04:07 68.0 °F 63.3 °F 29.95 in SSE 12.0 mph 12.0 mph 85% 0.00 in
04:12 67.8 °F 63.1 °F 29.95 in SSE 8.0 mph 11.0 mph 85% 0.00 in
04:17 67.7 °F 63.0 °F 29.95 in SSE 9.0 mph 15.0 mph 85% 0.00 in
04:22 67.7 °F 63.4 °F 29.95 in South 10.0 mph 20.0 mph 86% 0.00 in
04:27 67.6 °F 63.3 °F 29.95 in SSE 13.0 mph 18.0 mph 86% 0.00 in
04:32 67.6 °F 63.3 °F 29.96 in SSW 12.0 mph 17.0 mph 86% 0.00 in
04:37 67.7 °F 63.4 °F 29.96 in SE 16.0 mph 16.0 mph 86% 0.00 in
04:42 67.7 °F 63.4 °F 29.97 in SSE 13.0 mph 13.0 mph 86% 0.00 in
04:48 67.7 °F 63.4 °F 29.97 in SSE 11.0 mph 12.0 mph 86% 0.00 in
04:53 67.9 °F 63.6 °F 29.97 in SSW 6.0 mph 17.0 mph 86% 0.00 in
04:58 68.0 °F 63.7 °F 29.97 in SW 7.0 mph 17.0 mph 86% 0.00 in
05:03 68.0 °F 63.7 °F 29.97 in SSE 12.0 mph 13.0 mph 86% 0.00 in
05:08 68.0 °F 63.7 °F 29.97 in SSE 6.0 mph 13.0 mph 86% 0.00 in
05:13 67.9 °F 63.6 °F 29.97 in SW 6.0 mph 13.0 mph 86% 0.00 in
05:18 67.8 °F 63.5 °F 29.96 in SSW 9.0 mph 14.0 mph 86% 0.00 in
05:23 67.6 °F 63.3 °F 29.96 in SSE 9.0 mph 15.0 mph 86% 0.00 in
05:28 67.4 °F 63.1 °F 29.96 in SSE 10.0 mph 11.0 mph 86% 0.00 in
05:33 67.2 °F 63.2 °F 29.97 in South 5.0 mph 8.0 mph 87% 0.00 in
05:38 67.2 °F 63.2 °F 29.97 in SSE 11.0 mph 11.0 mph 87% 0.00 in
05:43 67.1 °F 63.1 °F 29.97 in SE 6.0 mph 10.0 mph 87% 0.00 in
05:49 67.1 °F 63.1 °F 29.98 in South 3.0 mph 12.0 mph 87% 0.00 in
05:54 67.1 °F 63.1 °F 29.98 in SSE 4.0 mph 9.0 mph 87% 0.00 in
05:59 67.0 °F 63.0 °F 29.98 in SSW 5.0 mph 9.0 mph 87% 0.00 in
06:04 67.0 °F 63.0 °F 29.98 in South 5.0 mph 11.0 mph 87% 0.00 in
06:09 66.9 °F 62.9 °F 29.98 in SW 8.0 mph 11.0 mph 87% 0.00 in
06:14 67.0 °F 63.0 °F 29.98 in SSE 5.0 mph 9.0 mph 87% 0.00 in
06:19 67.0 °F 63.0 °F 29.99 in SSE 6.0 mph 9.0 mph 87% 0.00 in
06:24 67.0 °F 63.0 °F 29.99 in SSW 4.0 mph 10.0 mph 87% 0.00 in
06:29 67.0 °F 63.3 °F 29.99 in SSE 4.0 mph 11.0 mph 88% 0.00 in
06:34 67.0 °F 63.3 °F 29.99 in South 8.0 mph 12.0 mph 88% 0.00 in
06:39 67.0 °F 63.3 °F 29.99 in SSW 7.0 mph 9.0 mph 88% 0.00 in
06:44 67.0 °F 63.3 °F 29.99 in SSE 7.0 mph 10.0 mph 88% 0.00 in
06:49 67.0 °F 63.3 °F 29.99 in SSE 9.0 mph 10.0 mph 88% 0.00 in
06:54 67.0 °F 63.3 °F 29.99 in SSW 14.0 mph 14.0 mph 88% 0.00 in
06:59 67.0 °F 63.3 °F 29.99 in SSW 5.0 mph 12.0 mph 88% 0.00 in
07:04 67.0 °F 63.3 °F 30.00 in SSE 8.0 mph 13.0 mph 88% 0.00 in
07:09 67.0 °F 63.3 °F 29.99 in South 8.0 mph 11.0 mph 88% 0.00 in
07:14 67.0 °F 63.3 °F 30.00 in SSE 10.0 mph 11.0 mph 88% 0.00 in
07:19 67.1 °F 63.4 °F 30.00 in South 6.0 mph 12.0 mph 88% 0.00 in
07:24 67.1 °F 63.4 °F 30.00 in SE 6.0 mph 9.0 mph 88% 0.00 in
07:29 67.3 °F 63.6 °F 30.01 in SSE 5.0 mph 11.0 mph 88% 0.00 in
07:34 67.4 °F 63.7 °F 30.01 in SSW 9.0 mph 9.0 mph 88% 0.00 in
07:40 67.6 °F 63.9 °F 30.01 in South 6.0 mph 9.0 mph 88% 0.00 in
07:45 67.6 °F 64.2 °F 30.03 in WNW 8.0 mph 12.0 mph 89% 0.00 in
07:50 66.0 °F 62.7 °F 30.02 in West 5.0 mph 16.0 mph 89% 0.21 in
07:55 64.7 °F 61.7 °F 30.03 in SW 7.0 mph 11.0 mph 90% 0.11 in
08:00 64.0 °F 61.6 °F 30.02 in West 6.0 mph 10.0 mph 92% 0.09 in
08:05 63.6 °F 61.2 °F 30.03 in SSW 4.0 mph 6.0 mph 92% 0.06 in
08:10 63.3 °F 61.2 °F 30.04 in SSW 4.0 mph 10.0 mph 93% 0.04 in
08:15 63.2 °F 61.2 °F 30.04 in WSW 2.0 mph 5.0 mph 93% 0.00 in
08:20 63.1 °F 61.0 °F 30.05 in SW 4.0 mph 6.0 mph 93% 0.00 in
08:25 63.0 °F 61.0 °F 30.05 in WSW 4.0 mph 6.0 mph 93% 0.00 in
08:30 62.8 °F 61.0 °F 30.05 in West 2.0 mph 7.0 mph 94% 0.57 in
08:35 62.7 °F 61.0 °F 30.05 in WSW 5.0 mph 10.0 mph 94% 0.10 in
08:40 62.7 °F 60.7 °F 30.04 in West 4.0 mph 12.0 mph 93% 0.06 in
08:45 62.6 °F 60.5 °F 30.05 in SW 5.0 mph 10.0 mph 93% 0.06 in
08:46 62.6 °F 60.5 °F 30.05 in WSW 2.0 mph 10.0 mph 93% 0.06 in
08:51 62.5 °F 60.2 °F 30.05 in WSW 11.0 mph 14.0 mph 92% 0.07 in
08:56 62.4 °F 60.0 °F 30.05 in SW 12.0 mph 12.0 mph 92% 0.07 in
09:01 62.2 °F 59.8 °F 30.05 in SW 8.0 mph 10.0 mph 92% 0.05 in
09:06 62.1 °F 59.8 °F 30.05 in SW 10.0 mph 15.0 mph 92% 0.00 in
09:11 62.0 °F 59.7 °F 30.05 in SSW 8.0 mph 11.0 mph 92% 0.00 in
09:16 61.9 °F 59.5 °F 30.05 in SSW 7.0 mph 11.0 mph 92% 0.00 in
09:22 61.9 °F 59.5 °F 30.05 in SSW 7.0 mph 11.0 mph 92% 0.00 in
09:27 61.9 °F 59.5 °F 30.05 in SW 10.0 mph 11.0 mph 92% 0.00 in
09:32 61.9 °F 59.5 °F 30.05 in SSW 9.0 mph 11.0 mph 92% 0.00 in
09:37 62.0 °F 59.7 °F 30.05 in SW 9.0 mph 10.0 mph 92% 0.00 in
09:42 62.1 °F 59.5 °F 30.06 in SW 8.0 mph 14.0 mph 91% 0.00 in
09:47 62.2 °F 59.5 °F 30.06 in WSW 9.0 mph 13.0 mph 91% 0.00 in
09:52 62.3 °F 59.6 °F 30.07 in South 4.0 mph 14.0 mph 91% 0.00 in
09:57 62.4 °F 59.7 °F 30.07 in WSW 8.0 mph 9.0 mph 91% 0.00 in
10:02 62.4 °F 59.4 °F 30.06 in SSE 11.0 mph 12.0 mph 90% 0.00 in
10:07 62.4 °F 59.4 °F 30.06 in SW 2.0 mph 10.0 mph 90% 0.00 in
10:12 62.5 °F 59.5 °F 30.06 in SSW 8.0 mph 11.0 mph 90% 0.00 in
10:17 62.6 °F 59.9 °F 30.06 in South 5.0 mph 10.0 mph 91% 0.00 in
10:23 62.8 °F 59.8 °F 30.06 in WSW 5.0 mph 12.0 mph 90% 0.00 in
10:28 63.0 °F 60.0 °F 30.05 in SSW 5.0 mph 9.0 mph 90% 0.00 in
10:33 63.3 °F 60.0 °F 30.04 in South 4.0 mph 9.0 mph 89% 0.00 in
10:38 63.6 °F 60.6 °F 30.04 in SE 6.0 mph 9.0 mph 90% 0.00 in
10:43 63.8 °F 60.5 °F 30.06 in SW 6.0 mph 12.0 mph 89% 0.00 in
10:48 63.9 °F 60.9 °F 30.07 in SSW 3.0 mph 11.0 mph 90% 0.00 in
10:53 64.0 °F 60.7 °F 30.07 in SSW 3.0 mph 12.0 mph 89% 0.00 in
10:58 64.3 °F 61.0 °F 30.08 in SW 8.0 mph 9.0 mph 89% 0.00 in
11:03 64.4 °F 61.1 °F 30.08 in SSW 8.0 mph 10.0 mph 89% 0.00 in
11:08 64.5 °F 61.2 °F 30.08 in SSW 10.0 mph 12.0 mph 89% 0.00 in
11:13 64.6 °F 61.0 °F 30.08 in SSW 7.0 mph 13.0 mph 88% 0.00 in
11:18 64.7 °F 61.1 °F 30.08 in WSW 7.0 mph 9.0 mph 88% 0.00 in
11:23 65.0 °F 61.7 °F 30.08 in WSW 5.0 mph 7.0 mph 89% 0.00 in
11:28 65.1 °F 60.8 °F 30.08 in SW 8.0 mph 11.0 mph 86% 0.00 in
11:34 65.1 °F 60.8 °F 30.07 in SSW 3.0 mph 11.0 mph 86% 0.00 in
11:39 65.2 °F 60.9 °F 30.08 in SW 6.0 mph 11.0 mph 86% 0.00 in
11:44 65.5 °F 61.5 °F 30.08 in SW 5.0 mph 6.0 mph 87% 0.00 in
11:49 65.5 °F 60.9 °F 30.09 in SSW 4.0 mph 11.0 mph 85% 0.00 in
11:54 65.8 °F 61.5 °F 30.09 in WSW 8.0 mph 10.0 mph 86% 0.00 in
11:59 65.8 °F 60.5 °F 30.09 in WSW 5.0 mph 13.0 mph 83% 0.00 in
12:04 65.7 °F 60.7 °F 30.09 in SW 5.0 mph 11.0 mph 84% 0.00 in
12:09 65.6 °F 60.3 °F 30.09 in West 3.0 mph 10.0 mph 83% 0.00 in
12:14 65.6 °F 60.6 °F 30.09 in West 5.0 mph 7.0 mph 84% 0.00 in
12:19 65.5 °F 60.2 °F 30.09 in WSW 5.0 mph 10.0 mph 83% 0.00 in
12:24 65.5 °F 60.5 °F 30.09 in SW 3.0 mph 12.0 mph 84% 0.00 in
12:29 65.5 °F 59.9 °F 30.09 in SSW 13.0 mph 15.0 mph 82% 0.00 in
12:34 65.6 °F 60.3 °F 30.09 in SW 5.0 mph 15.0 mph 83% 0.00 in
12:39 65.9 °F 60.6 °F 30.08 in SW 6.0 mph 12.0 mph 83% 0.00 in
12:44 66.4 °F 61.4 °F 30.08 in SW 12.0 mph 12.0 mph 84% 0.00 in
12:49 66.8 °F 61.8 °F 30.08 in SW 7.0 mph 8.0 mph 84% 0.00 in
12:54 67.2 °F 61.9 °F 30.08 in SW 6.0 mph 11.0 mph 83% 0.00 in
12:59 67.2 °F 61.9 °F 30.08 in WSW 15.0 mph 15.0 mph 83% 0.00 in
13:04 67.0 °F 61.3 °F 30.08 in SW 8.0 mph 15.0 mph 82% 0.00 in
13:09 66.8 °F 61.1 °F 30.08 in SW 8.0 mph 15.0 mph 82% 0.00 in
13:15 67.0 °F 61.7 °F 30.08 in SW 5.0 mph 13.0 mph 83% 0.00 in
13:20 67.0 °F 61.3 °F 30.08 in SW 11.0 mph 13.0 mph 82% 0.00 in
13:25 66.7 °F 61.4 °F 30.08 in WSW 11.0 mph 13.0 mph 83% 0.00 in
13:30 66.7 °F 61.7 °F 30.07 in WSW 4.0 mph 10.0 mph 84% 0.00 in
13:35 66.9 °F 61.6 °F 30.07 in SW 6.0 mph 8.0 mph 83% 0.00 in
13:40 67.0 °F 62.0 °F 30.07 in SW 6.0 mph 6.0 mph 84% 0.00 in
13:45 67.1 °F 61.4 °F 30.06 in SW 4.0 mph 8.0 mph 82% 0.00 in
13:50 67.1 °F 61.4 °F 30.06 in SSW 5.0 mph 8.0 mph 82% 0.00 in
13:55 67.2 °F 61.2 °F 30.06 in WSW 5.0 mph 11.0 mph 81% 0.00 in
14:00 67.2 °F 61.5 °F 30.06 in WSW 4.0 mph 9.0 mph 82% 0.00 in
14:05 67.1 °F 60.7 °F 30.06 in WSW 5.0 mph 10.0 mph 80% 0.00 in
14:10 67.2 °F 60.5 °F 30.06 in SW 7.0 mph 9.0 mph 79% 0.00 in
14:15 67.4 °F 61.4 °F 30.06 in SW 4.0 mph 7.0 mph 81% 0.00 in
14:20 68.1 °F 61.3 °F 30.06 in WNW 6.0 mph 7.0 mph 79% 0.00 in
14:25 67.8 °F 60.7 °F 30.06 in WSW 3.0 mph 9.0 mph 78% 0.00 in
14:30 68.3 °F 61.2 °F 30.07 in WSW 7.0 mph 10.0 mph 78% 0.00 in
14:35 68.3 °F 60.8 °F 30.07 in WNW 6.0 mph 8.0 mph 77% 0.00 in
14:36 68.3 °F 60.8 °F 30.07 in West 7.0 mph 9.0 mph 77% 0.00 in
14:41 68.8 °F 61.7 °F 30.07 in West 7.0 mph 10.0 mph 78% 0.00 in
14:46 69.2 °F 61.3 °F 30.07 in WSW 7.0 mph 8.0 mph 76% 0.00 in
14:51 69.0 °F 60.4 °F 30.07 in WSW 6.0 mph 10.0 mph 74% 0.00 in
14:57 68.9 °F 60.7 °F 30.08 in WSW 11.0 mph 11.0 mph 75% 0.00 in
15:01 68.9 °F 61.0 °F 30.08 in SW 6.0 mph 8.0 mph 76% 0.00 in
15:07 68.7 °F 60.8 °F 30.08 in West 5.0 mph 9.0 mph 76% 0.00 in
15:12 68.8 °F 61.7 °F 30.08 in WSW 3.0 mph 9.0 mph 78% 0.00 in
15:17 69.8 °F 61.9 °F 30.08 in West 5.0 mph 7.0 mph 76% 0.00 in
15:21 69.7 °F 59.9 °F 30.08 in WNW 9.0 mph 10.0 mph 71% 0.00 in
15:27 69.5 °F 59.7 °F 30.08 in SW 3.0 mph 12.0 mph 71% 0.00 in
15:32 69.6 °F 59.8 °F 30.08 in WSW 8.0 mph 10.0 mph 71% 0.00 in
15:37 69.9 °F 60.5 °F 30.08 in WNW 3.0 mph 6.0 mph 72% 0.00 in
15:42 70.1 °F 59.5 °F 30.08 in WNW 5.0 mph 9.0 mph 69% 0.00 in
15:47 69.9 °F 60.1 °F 30.08 in West 7.0 mph 7.0 mph 71% 0.00 in
15:52 70.1 °F 60.7 °F 30.08 in West 4.0 mph 9.0 mph 72% 0.00 in
15:57 70.5 °F 61.4 °F 30.08 in WSW 6.0 mph 7.0 mph 73% 0.00 in
16:02 71.3 °F 61.0 °F 30.08 in SW 5.0 mph 8.0 mph 70% 0.00 in
16:07 71.4 °F 60.7 °F 30.07 in West 2.0 mph 5.0 mph 69% 0.00 in
16:12 71.4 °F 60.3 °F 30.08 in West 5.0 mph 9.0 mph 68% 0.00 in
16:17 71.3 °F 60.6 °F 30.08 in South 2.0 mph 7.0 mph 69% 0.00 in
16:22 71.1 °F 60.0 °F 30.08 in SW 2.0 mph 7.0 mph 68% 0.00 in
16:27 71.5 °F 60.8 °F 30.08 in SW 6.0 mph 8.0 mph 69% 0.00 in
16:33 71.8 °F 61.1 °F 30.07 in SW 3.0 mph 7.0 mph 69% 0.00 in
16:38 71.6 °F 61.3 °F 30.07 in WNW 3.0 mph 4.0 mph 70% 0.00 in
16:43 71.3 °F 60.2 °F 30.07 in WNW 1.0 mph 7.0 mph 68% 0.00 in
16:48 71.2 °F 61.3 °F 30.07 in WSW 5.0 mph 6.0 mph 71% 0.00 in
16:53 71.5 °F 60.8 °F 30.07 in West 4.0 mph 6.0 mph 69% 0.00 in
16:58 71.7 °F 59.8 °F 30.07 in WSW 5.0 mph 10.0 mph 66% 0.00 in
17:03 71.8 °F 60.3 °F 30.07 in West 7.0 mph 9.0 mph 67% 0.00 in
17:08 72.0 °F 60.5 °F 30.07 in West 7.0 mph 10.0 mph 67% 0.00 in
17:13 72.5 °F 60.1 °F 30.07 in WSW 7.0 mph 8.0 mph 65% 0.00 in
17:18 72.9 °F 60.5 °F 30.07 in West 6.0 mph 9.0 mph 65% 0.00 in
17:23 72.2 °F 59.8 °F 30.07 in WSW 5.0 mph 9.0 mph 65% 0.00 in
17:29 71.6 °F 60.1 °F 30.07 in West 2.0 mph 10.0 mph 67% 0.00 in
17:34 71.4 °F 59.9 °F 30.07 in West 4.0 mph 8.0 mph 67% 0.00 in
17:39 71.4 °F 59.9 °F 30.07 in SW 7.0 mph 10.0 mph 67% 0.00 in
17:44 71.4 °F 60.3 °F 30.08 in WNW 4.0 mph 7.0 mph 68% 0.00 in
17:49 72.3 °F 60.7 °F 30.08 in WNW 6.0 mph 8.0 mph 67% 0.00 in
17:54 72.7 °F 60.3 °F 30.08 in WSW 9.0 mph 11.0 mph 65% 0.00 in
17:59 72.4 °F 59.5 °F 30.08 in West 7.0 mph 9.0 mph 64% 0.00 in
18:05 71.9 °F 60.4 °F 30.09 in West 5.0 mph 7.0 mph 67% 0.00 in
18:10 71.4 °F 59.9 °F 30.09 in NW 6.0 mph 6.0 mph 67% 0.00 in
18:15 70.9 °F 59.4 °F 30.09 in WNW 2.0 mph 6.0 mph 67% 0.00 in
18:20 70.7 °F 60.0 °F 30.09 in WNW 4.0 mph 7.0 mph 69% 0.00 in
18:25 70.5 °F 60.3 °F 30.09 in WNW 3.0 mph 7.0 mph 70% 0.00 in
18:30 69.9 °F 59.3 °F 30.09 in WNW 6.0 mph 8.0 mph 69% 0.00 in
18:35 69.6 °F 59.0 °F 30.09 in WNW 3.0 mph 6.0 mph 69% 0.00 in
18:40 69.4 °F 59.6 °F 30.09 in WNW 3.0 mph 4.0 mph 71% 0.00 in
18:45 69.3 °F 59.9 °F 30.10 in NW 4.0 mph 4.0 mph 72% 0.00 in
18:50 69.1 °F 59.7 °F 30.09 in WNW 3.0 mph 6.0 mph 72% 0.00 in
18:55 68.9 °F 59.5 °F 30.09 in NW 4.0 mph 6.0 mph 72% 0.00 in
19:00 68.7 °F 59.7 °F 30.10 in WNW 2.0 mph 6.0 mph 73% 0.00 in
19:05 68.4 °F 59.4 °F 30.10 in WNW 6.0 mph 8.0 mph 73% 0.00 in
19:10 68.2 °F 59.2 °F 30.09 in NW 3.0 mph 7.0 mph 73% 0.00 in
19:15 67.9 °F 59.3 °F 30.09 in NW 4.0 mph 6.0 mph 74% 0.00 in
19:20 67.8 °F 59.6 °F 30.09 in NW 4.0 mph 5.0 mph 75% 0.00 in
19:25 67.7 °F 59.5 °F 30.09 in NNW 3.0 mph 6.0 mph 75% 0.00 in
19:30 67.6 °F 59.4 °F 30.09 in NNW 3.0 mph 5.0 mph 75% 0.00 in
19:35 67.4 °F 59.2 °F 30.09 in NNW 3.0 mph 4.0 mph 75% 0.00 in
19:40 67.3 °F 59.5 °F 30.09 in NW 2.0 mph 3.0 mph 76% 0.00 in
19:45 67.1 °F 59.3 °F 30.10 in NW 2.0 mph 3.0 mph 76% 0.00 in
19:50 67.0 °F 59.2 °F 30.10 in NW 1.0 mph 2.0 mph 76% 0.00 in
19:55 66.8 °F 59.0 °F 30.10 in NW 2.0 mph 3.0 mph 76% 0.00 in
20:00 66.5 °F 58.7 °F 30.10 in NW 2.0 mph 5.0 mph 76% 0.00 in
20:05 66.1 °F 58.7 °F 30.10 in NW 2.0 mph 3.0 mph 77% 0.00 in
20:11 65.8 °F 58.8 °F 30.10 in NW 3.0 mph 4.0 mph 78% 0.00 in
20:16 65.4 °F 58.4 °F 30.11 in NNW 2.0 mph 2.0 mph 78% 0.00 in
20:21 65.0 °F 58.3 °F 30.11 in NNW 2.0 mph 3.0 mph 79% 0.00 in
20:26 64.6 °F 58.7 °F 30.11 in NNW 2.0 mph 2.0 mph 81% 0.00 in
20:31 64.3 °F 58.7 °F 30.11 in NNW 1.0 mph 2.0 mph 82% 0.00 in
20:36 64.1 °F 58.5 °F 30.11 in NW 3.0 mph 3.0 mph 82% 0.00 in
20:41 64.0 °F 58.1 °F 30.11 in NW 2.0 mph 2.0 mph 81% 0.00 in
20:46 63.9 °F 58.0 °F 30.12 in North 1.0 mph 2.0 mph 81% 0.00 in
20:51 63.7 °F 58.1 °F 30.11 in NNE 2.0 mph 2.0 mph 82% 0.00 in
20:56 63.5 °F 58.2 °F 30.11 in NW 1.0 mph 2.0 mph 83% 0.00 in
21:01 63.2 °F 58.0 °F 30.11 in NW 2.0 mph 2.0 mph 83% 0.00 in
21:06 63.0 °F 57.8 °F 30.12 in NW 2.0 mph 3.0 mph 83% 0.00 in
21:11 62.8 °F 57.6 °F 30.12 in NNW 1.0 mph 2.0 mph 83% 0.00 in
21:16 62.7 °F 57.5 °F 30.12 in NNW 1.0 mph 2.0 mph 83% 0.00 in
21:21 62.6 °F 57.7 °F 30.12 in NNW 1.0 mph 2.0 mph 84% 0.00 in
21:26 62.5 °F 57.6 °F 30.13 in Calm   1.0 mph 84% 0.00 in
21:31 62.3 °F 57.4 °F 30.13 in Calm   1.0 mph 84% 0.00 in
21:37 62.1 °F 57.2 °F 30.13 in Calm     84% 0.00 in
21:42 61.9 °F 57.3 °F 30.13 in Calm     85% 0.00 in
21:47 61.8 °F 57.6 °F 30.14 in Calm   1.0 mph 86% 0.00 in
21:52 61.8 °F 57.2 °F 30.14 in Calm   1.0 mph 85% 0.00 in
21:57 61.7 °F 57.2 °F 30.15 in Calm     85% 0.00 in
22:02 61.7 °F 57.5 °F 30.15 in Calm   1.0 mph 86% 0.00 in
22:07 61.6 °F 57.4 °F 30.15 in NNW 1.0 mph 1.0 mph 86% 0.00 in
22:12 61.4 °F 57.2 °F 30.15 in Calm     86% 0.00 in
22:17 61.3 °F 57.1 °F 30.16 in Calm     86% 0.00 in
22:22 61.1 °F 57.2 °F 30.16 in Calm   1.0 mph 87% 0.00 in
22:27 61.0 °F 57.1 °F 30.16 in NW 2.0 mph 2.0 mph 87% 0.00 in
22:32 60.9 °F 57.0 °F 30.16 in WNW 1.0 mph 2.0 mph 87% 0.00 in
22:37 61.0 °F 57.1 °F 30.16 in WNW 1.0 mph 3.0 mph 87% 0.00 in
22:42 61.0 °F 56.8 °F 30.16 in NW 1.0 mph 2.0 mph 86% 0.00 in
22:47 61.0 °F 56.8 °F 30.17 in NW 2.0 mph 3.0 mph 86% 0.00 in
22:52 61.0 °F 56.8 °F 30.17 in NW 1.0 mph 3.0 mph 86% 0.00 in
22:57 61.0 °F 56.8 °F 30.17 in NNW 2.0 mph 4.0 mph 86% 0.00 in
23:02 60.9 °F 57.0 °F 30.17 in NNW 2.0 mph 3.0 mph 87% 0.00 in
23:07 60.8 °F 56.9 °F 30.16 in North 3.0 mph 4.0 mph 87% 0.00 in
23:12 60.7 °F 56.8 °F 30.16 in NNW 2.0 mph 3.0 mph 87% 0.00 in
23:17 60.7 °F 56.8 °F 30.16 in NW 2.0 mph 3.0 mph 87% 0.00 in
23:22 60.6 °F 56.7 °F 30.16 in North 2.0 mph 3.0 mph 87% 0.00 in
23:27 60.5 °F 56.6 °F 30.16 in NW 3.0 mph 4.0 mph 87% 0.00 in
23:32 60.4 °F 56.5 °F 30.16 in NW 3.0 mph 3.0 mph 87% 0.00 in
23:37 60.3 °F 56.4 °F 30.16 in NNW 2.0 mph 4.0 mph 87% 0.00 in
23:42 60.3 °F 56.7 °F 30.16 in North 4.0 mph 4.0 mph 88% 0.00 in
23:47 60.2 °F 56.3 °F 30.16 in NNW 2.0 mph 3.0 mph 87% 0.00 in
23:52 60.1 °F 56.5 °F 30.15 in NW 2.0 mph 4.0 mph 88% 0.00 in
23:57 60.0 °F 56.4 °F 30.15 in NW 2.0 mph 5.0 mph 88% 0.00 in
Compliments of Weather Underground